Location: Baia de Cri?
(46.1667°N, 22.7167°E)
Time: 02:47:47
(UTC+00:00)

ARIANE 6 FM1 Upper Stage - Visible Passes

Search period start: 09 March 2026 00:00
Search period end: 19 March 2026 00:00
Orbit: 523 x 607 km, 62.0° (Epoch: 8 March)

Date Brightness Start Highest point End Pass type
(mag) Time Alt. Az. Time Alt. Az. Time Alt. Az.
9 Mar 5.3 02:45:38 10° SSE 02:48:08 16° ESE 02:50:36 10° ENE visible
10 Mar 4.8 02:45:03 12° SSE 02:47:48 22° ESE 02:50:59 10° ENE visible
11 Mar 4.1 02:45:34 21° SSE 02:47:29 32° ESE 02:51:06 10° ENE visible
12 Mar 3.4 02:45:54 34° S 02:47:11 46° SE 02:51:04 10° NE visible
13 Mar 2.8 02:46:06 52° S 02:46:55 68° SE 02:50:56 10° NE visible
14 Mar 2.4 02:46:11 68° SW 02:46:40 84° NW 02:50:43 10° NE visible
15 Mar 5.7 01:10:10 12° E 01:10:10 12° E 01:10:35 10° ENE visible
15 Mar 2.6 02:46:10 58° WNW 02:46:27 60° NW 02:50:27 10° NE visible
16 Mar 5.6 01:10:05 14° ENE 01:10:05 14° ENE 01:10:47 10° ENE visible
16 Mar 3.1 02:46:04 43° NW 02:46:15 43° NW 02:50:07 10° NNE visible
17 Mar 5.5 01:09:55 15° ENE 01:09:55 15° ENE 01:10:48 10° ENE visible
17 Mar 3.5 02:45:54 32° NW 02:46:05 32° NW 02:49:45 10° NNE visible
18 Mar 5.4 01:09:41 17° NE 01:09:41 17° NE 01:10:40 10° NE visible
18 Mar 4.0 02:45:40 25° NW 02:45:56 25° NW 02:49:20 10° NNE visible
